[[{"header":{"parameterUnit":"m.s-1","parameterCategory":1,"la1":30.2991,"la2":30.254,"lo1":-89.0895,"lo2":-89.0444,"dy":0.0017,"dx":0.0017,"nx":28,"ny":28,"refTime":"2024-08-23T03:00:00:Z","depth":0,"parameterNumber":2,"parameterNumberName":"U-component_of_WINDS"},"data":[0,0,0,0,0,0,0,0,0,0,0,0,0,0,0,0,0,0,0,0,0,0,0,0,0,0,0,0,0,0,0,0,0,0,0,0,0,0,0,0,0,0,0,0,0,0,0,0,0,0,0,0,0,0,0,0,0,0,-5.6097,-5.6098,0,-5.6214,-5.6215,-5.6217,-5.6165,-5.6162,-5.6159,-5.6157,-5.6276,-5.6282,-5.6288,0,0,0,0,0,0,0,0,0,0,0,0,0,-5.583,-5.5835,-5.6097,-5.6098,-5.61,-5.6214,-5.6215,-5.6217,-5.6166,-5.6162,-5.6159,-5.6155,-5.6274,-5.6281,-5.6288,0,0,0,0,0,0,0,0,0,0,0,0,0,-5.5946,-5.5836,-5.6097,-5.6088,-5.6088,-5.6213,-5.6215,-5.6217,-5.6166,-5.6162,-5.6158,-5.6154,-5.6272,-5.628,-5.6289,-5.643,0,0,-5.6316,-5.632,0,0,0,0,0,0,0,0,-5.594,-5.5956,-5.6088,-5.6089,-5.6089,-5.617,-5.6165,-5.6289,-5.6167,-5.6137,-5.6157,-5.6152,-5.6245,-5.6255,-5.6287,-5.6435,-5.644,-5.6317,-5.6322,-5.6326,-5.6328,0,0,0,0,0,0,0,-5.5932,-5.5951,-5.6143,-5.609,-5.6091,-5.6078,-5.609,-5.6188,-5.6213,-5.6139,-5.6136,-5.615,-5.6244,-5.6278,-5.6289,-5.6442,-5.6317,-5.6324,-5.633,-5.6333,-5.6714,-5.6718,0,0,0,0,0,0,-5.5924,-5.5944,-5.6139,-5.6147,-5.6002,-5.6087,-5.61,-5.6149,-5.6212,-5.6218,-5.6154,-5.6147,-5.6265,-5.6279,-5.6293,-5.6463,-5.6326,-5.6334,-5.6339,-5.6709,-5.6715,-5.672,0,0,0,0,0,0,-5.5918,-5.5941,-5.6135,-5.6045,-5.6068,-5.6096,-5.6151,-5.6153,-5.6187,-5.6223,-5.6227,-5.6184,-5.6263,-5.6281,-5.6397,-5.6466,-5.6338,-5.6346,-5.6703,-5.6711,-5.6718,-5.6803,0,0,0,0,0,0,-5.5911,-5.594,-5.5993,-5.6046,-5.6073,-5.6236,-5.6156,-5.6159,-5.6203,-5.6196,-5.6253,-5.6258,-5.6261,-5.6384,-5.6405,-5.6476,-5.6353,-5.6697,-5.6707,-5.6715,-5.6794,-5.6812,-5.6828,0,0,0,0,0,-5.5901,-5.6012,-5.5996,-5.602,-5.6141,-5.624,-5.6256,-5.6256,-5.6209,-5.6263,-5.6286,-5.6256,-5.6455,-5.6396,-5.642,-5.6494,-5.6693,-5.6704,-5.6715,-5.6787,-5.6809,-5.6828,0,0,0,0,0,0,-5.5965,-5.6019,-5.6002,-5.6133,-5.6183,-5.6231,-5.6299,-5.628,-5.6344,-5.6334,-5.6332,-5.6346,-5.6466,-5.6492,-5.6425,-5.6635,-5.6567,-5.6583,-5.6613,-5.6635,-5.6651,-5.6643,-5.636,0,0,0,0,0,-5.5995,-5.6072,-5.6114,-5.6226,-5.6251,-5.6272,-5.6315,-5.6311,-5.6363,-5.6383,-5.6415,-5.6466,-5.654,-5.6589,-5.6659,-5.6798,-5.681,-5.6861,-5.6878,-5.6892,-5.6906,-5.6983,-5.7006,-5.6756,-5.6756,-5.6756,0,0,-5.6057,-5.6095,-5.6143,-5.624,-5.6278,-5.6357,-5.6289,-5.6376,-5.6435,-5.6396,-5.6508,-5.6533,-5.659,-5.6719,-5.6777,-5.6744,-5.6978,-5.6905,-5.6916,-5.6923,-5.6996,-5.702,-5.7041,-5.6763,-5.6762,-5.6761,0,0,-5.621,-5.6246,-5.6344,-5.6384,-5.6443,-5.6456,-5.648,-5.6532,-5.6548,-5.666,-5.6633,-5.6703,-5.6831,-5.6873,-5.6911,-5.7083,-5.7059,-5.7106,-5.7194,-5.7269,-5.7289,-5.7307,-5.7369,-5.7391,-5.712,-5.712,-5.712,0,-5.6279,-5.6398,-5.6397,-5.6487,-5.653,-5.65,-5.6599,-5.6638,-5.6717,-5.6748,-5.671,-5.687,-5.6906,-5.7045,-5.7087,-5.7119,-5.7147,-5.7099,-5.7286,-5.7304,-5.732,-5.738,-5.7403,-5.7125,-5.7125,-5.7124,-5.7124,0,-5.648,-5.6564,-5.6636,-5.6713,-5.6765,-5.6859,-5.6873,-5.6926,-5.6919,-5.6936,-5.7052,-5.7094,-5.7173,-5.7206,-5.7199,-5.7344,-5.7322,-5.7286,-5.7217,-5.735,-5.7406,-5.7428,-5.7133,-5.7131,-5.713,-5.7128,0,0,-5.6676,-5.6754,-5.678,-5.6816,-5.688,-5.6944,-5.7038,-5.7115,-5.7161,-5.7217,-5.7296,-5.7406,-5.7373,-5.7416,-5.7414,-5.748,-5.7615,-5.7436,-5.7437,-5.7468,-5.778,-5.7808,-5.7834,-5.76,-5.7604,-5.7607,-5.7776,0,-5.6834,-5.6998,-5.7002,-5.7152,-5.723,-5.7203,-5.7284,-5.7333,-5.7352,-5.7421,-5.7442,-5.752,-5.747,-5.7496,-5.7561,-5.7585,-5.7678,-5.7573,-5.7674,-5.7677,-5.7661,-5.7863,-5.7892,-5.8049,-5.7797,-5.7801,-5.7804,0,-5.7041,-5.7105,-5.7264,-5.7318,-5.7351,-5.7424,-5.7496,-5.7562,-5.7617,-5.7627,-5.7677,-5.7665,-5.7761,-5.7691,-5.7824,-5.7753,-5.7794,-5.7813,-5.7819,-5.7829,-5.7749,-5.7879,-5.8099,-5.8123,-5.7838,-5.7835,-5.7833,0,-5.7169,-5.7294,-5.7406,-5.7437,-5.7503,-5.7556,-5.7586,-5.7636,-5.7684,-5.7747,-5.7778,-5.7852,-5.7893,-5.7951,-5.796,-5.7907,-5.8095,-5.8024,-5.8106,-5.8106,-5.8146,-5.8144,-5.8376,-5.8172,-5.8172,-5.8172,-5.8171,0,-5.7346,-5.7444,-5.7465,-5.7534,-5.7644,-5.7647,-5.7756,-5.7781,-5.7827,-5.7901,-5.7882,-5.7952,-5.7959,-5.8032,-5.804,-5.815,-5.8168,-5.8179,-5.818,-5.8181,-5.818,-5.8208,-5.8198,-5.8178,-5.8177,-5.8175,-5.8174,0,-5.7507,-5.7525,-5.7645,-5.7698,-5.7714,-5.7793,-5.7839,-5.7905,-5.7923,-5.8017,-5.8039,-5.8067,-5.8151,-5.8166,-5.8265,-5.8271,-5.8403,-5.8393,-5.8385,-5.8384,-5.8465,-5.8457,-5.8725,-5.876,-5.8532,-5.8535,-5.8536,0,-5.7619,-5.7695,-5.7757,-5.7805,-5.7838,-5.7916,-5.7964,-5.7971,-5.8022,-5.8092,-5.815,-5.8233,-5.8299,-5.8435,-5.8465,-5.8541,-5.8533,-5.8621,-5.8544,-5.8543,-5.8535,-5.8531,-5.8539,-5.8636,-5.8638,-5.864,-5.8642,0,-5.7816,-5.7822,-5.7892,-5.7968,-5.8026,-5.8085,-5.8141,-5.8182,-5.8196,-5.8255,-5.8342,-5.8393,-5.8495,-5.8578,-5.8654,-5.8686,-5.8667,-5.8666,-5.8689,-5.8691,-5.8684,-5.869,-5.8426,-5.866,-5.8658,-5.8657,-5.8656,-5.8655,-5.7957,-5.8023,-5.8078,-5.8158,-5.8201,-5.8255,-5.832,-5.8347,-5.8419,-5.8503,-5.8502,-5.8597,-5.8652,-5.8753,-5.879,-5.8865,-5.8836,-5.8869,-5.8878,-5.8886,-5.8895,-5.8672,-5.8878,-5.8878,-5.8877,-5.8877,-5.8877,0,-5.8154,-5.8188,-5.8262,-5.8341,-5.8405,-5.8382,-5.8444,-5.8498,-5.8582,-5.8635,-5.8701,-5.8802,-5.8882,-5.8919,-5.8999,-5.9052,-5.9046,-5.9073,-5.9069,-5.9077,-5.8915,-5.8887,-5.9077,-5.9077,-5.9077,-5.9077,-5.9077,-5.9077,-5.8264,-5.8375,-5.8388,-5.8521,-5.8555,-5.8648,-5.8685,-5.8735,-5.8777,-5.889,-5.8957,-5.8981,-5.9028,-5.9111,-5.9185,-5.9194,-5.9224,-5.9256,-5.9261,-5.9108,-5.9088,-5.9069,-5.9043,-5.9262,-5.9262,-5.9417,-5.9418,-5.9419]},{"header":{"parameterUnit":"m.s-1","parameterCategory":1,"la1":30.2991,"la2":30.254,"lo1":-89.0895,"lo2":-89.0444,"dy":0.0017,"dx":0.0017,"nx":28,"ny":28,"refTime":"2024-08-23T03:00:00:Z","depth":0,"parameterNumber":3,"parameterNumberName":"V-component_of_WINDS"},"data":[0,0,0,0,0,0,0,0,0,0,0,0,0,0,0,0,0,0,0,0,0,0,0,0,0,0,0,0,0,0,0,0,0,0,0,0,0,0,0,0,0,0,0,0,0,0,0,0,0,0,0,0,0,0,0,0,0,0,-2.2747,-2.2747,0,-2.2715,-2.2715,-2.2714,-2.264,-2.2639,-2.2637,-2.2636,-2.2604,-2.2605,-2.2606,0,0,0,0,0,0,0,0,0,0,0,0,0,-2.2744,-2.2745,-2.2747,-2.2747,-2.2746,-2.2715,-2.2715,-2.2714,-2.264,-2.2639,-2.2637,-2.2635,-2.2604,-2.2605,-2.2606,0,0,0,0,0,0,0,0,0,0,0,0,0,-2.2732,-2.2745,-2.2747,-2.2706,-2.2702,-2.2715,-2.2715,-2.2714,-2.2641,-2.2639,-2.2636,-2.2634,-2.2604,-2.2605,-2.2606,-2.2657,0,0,-2.2608,-2.2609,0,0,0,0,0,0,0,0,-2.2733,-2.2733,-2.2712,-2.2708,-2.2704,-2.2679,-2.2702,-2.2695,-2.2641,-2.2664,-2.2636,-2.2633,-2.2631,-2.263,-2.2629,-2.2656,-2.2655,-2.2609,-2.2609,-2.2609,-2.261,0,0,0,0,0,0,0,-2.2734,-2.2734,-2.2734,-2.2712,-2.2707,-2.2689,-2.2684,-2.27,-2.2661,-2.2662,-2.2656,-2.2654,-2.2629,-2.2628,-2.2628,-2.2654,-2.2609,-2.2609,-2.261,-2.261,-2.2721,-2.2723,0,0,0,0,0,0,-2.2741,-2.2735,-2.2735,-2.2733,-2.2713,-2.2691,-2.2686,-2.269,-2.2661,-2.2654,-2.2656,-2.265,-2.2628,-2.2627,-2.2626,-2.2684,-2.2609,-2.261,-2.2611,-2.2718,-2.2721,-2.2724,0,0,0,0,0,0,-2.2741,-2.2742,-2.2737,-2.2732,-2.273,-2.2693,-2.2698,-2.269,-2.269,-2.2656,-2.2648,-2.2662,-2.2626,-2.2625,-2.265,-2.2682,-2.2611,-2.2612,-2.2715,-2.2719,-2.2722,-2.2801,0,0,0,0,0,0,-2.2741,-2.2742,-2.2761,-2.2733,-2.2731,-2.2761,-2.27,-2.2691,-2.2691,-2.2684,-2.266,-2.2654,-2.2624,-2.2649,-2.2651,-2.2682,-2.2612,-2.2712,-2.2717,-2.2721,-2.2795,-2.2807,-2.2817,0,0,0,0,0,-2.2741,-2.2785,-2.2763,-2.2763,-2.2754,-2.2763,-2.2762,-2.2726,-2.2694,-2.2713,-2.2691,-2.2655,-2.2678,-2.2652,-2.2653,-2.2686,-2.271,-2.2716,-2.2721,-2.2791,-2.2805,-2.2816,0,0,0,0,0,0,-2.2819,-2.2781,-2.2756,-2.2792,-2.2781,-2.275,-2.2774,-2.2742,-2.274,-2.2734,-2.2689,-2.2685,-2.2715,-2.2703,-2.2674,-2.2733,-2.2688,-2.2694,-2.2741,-2.2754,-2.2764,-2.2767,-2.2613,0,0,0,0,0,-2.284,-2.285,-2.2817,-2.2852,-2.2848,-2.2812,-2.2814,-2.2787,-2.2774,-2.277,-2.275,-2.2739,-2.2743,-2.2748,-2.275,-2.2793,-2.2786,-2.2815,-2.2826,-2.2835,-2.2841,-2.2862,-2.2874,-2.2741,-2.2741,-2.2741,0,0,-2.2885,-2.2865,-2.2874,-2.2867,-2.2855,-2.2867,-2.2808,-2.2823,-2.2831,-2.2772,-2.2794,-2.2779,-2.2764,-2.2798,-2.2812,-2.2788,-2.2876,-2.2842,-2.2849,-2.285,-2.2869,-2.2881,-2.2892,-2.2745,-2.2744,-2.2744,0,0,-2.2971,-2.2957,-2.2985,-2.2974,-2.2957,-2.2932,-2.2939,-2.2913,-2.29,-2.2921,-2.2877,-2.2886,-2.2895,-2.2886,-2.2883,-2.2964,-2.293,-2.2966,-2.3022,-2.3043,-2.3053,-2.3062,-2.3091,-2.3102,-2.2972,-2.2972,-2.2972,0,-2.3029,-2.3043,-2.3003,-2.302,-2.3018,-2.2964,-2.2991,-2.2983,-2.2968,-2.2968,-2.2941,-2.2951,-2.2937,-2.2968,-2.2987,-2.2986,-2.2992,-2.2969,-2.3055,-2.3063,-2.3071,-2.3098,-2.3109,-2.2976,-2.2976,-2.2975,-2.2975,0,-2.3115,-2.3126,-2.315,-2.3136,-2.3136,-2.3158,-2.3121,-2.3126,-2.3099,-2.3077,-2.3099,-2.308,-2.3078,-2.3083,-2.3057,-2.3109,-2.3095,-2.3063,-2.3016,-2.3089,-2.3114,-2.3124,-2.2983,-2.2981,-2.298,-2.2979,0,0,-2.3251,-2.3212,-2.3222,-2.3214,-2.3191,-2.3199,-2.3218,-2.3215,-2.322,-2.3211,-2.3226,-2.3234,-2.3203,-2.32,-2.3172,-2.319,-2.3255,-2.3155,-2.3154,-2.3174,-2.3312,-2.3337,-2.335,-2.3232,-2.3234,-2.3236,-2.3313,0,-2.3332,-2.3362,-2.3326,-2.3364,-2.3374,-2.3322,-2.3338,-2.3326,-2.3306,-2.3311,-2.3288,-2.3295,-2.3254,-2.3251,-2.3266,-2.3244,-2.3282,-2.3238,-2.3246,-2.3247,-2.3252,-2.3362,-2.3389,-2.3463,-2.3322,-2.3324,-2.3325,0,-2.3431,-2.3425,-2.3465,-2.3437,-2.344,-2.3456,-2.3449,-2.3454,-2.3439,-2.3423,-2.3418,-2.3384,-2.3401,-2.3355,-2.3378,-2.3348,-2.3349,-2.3339,-2.3341,-2.3341,-2.3291,-2.3366,-2.3486,-2.3498,-2.334,-2.3339,-2.3338,0,-2.3526,-2.3528,-2.3552,-2.3547,-2.3516,-2.3528,-2.3516,-2.3498,-2.3498,-2.3492,-2.3491,-2.3488,-2.3486,-2.3484,-2.345,-2.342,-2.3477,-2.3429,-2.3464,-2.3465,-2.3479,-2.3479,-2.3602,-2.348,-2.348,-2.3479,-2.3479,0,-2.362,-2.3647,-2.3594,-2.3609,-2.3636,-2.3594,-2.3622,-2.3604,-2.3588,-2.3599,-2.3553,-2.3564,-2.3518,-2.3524,-2.3497,-2.352,-2.3519,-2.3507,-2.35,-2.3511,-2.3513,-2.3512,-2.3506,-2.3482,-2.3482,-2.3481,-2.3481,0,-2.3732,-2.3698,-2.372,-2.3688,-2.368,-2.3702,-2.3675,-2.3687,-2.3663,-2.3677,-2.3677,-2.3641,-2.3645,-2.361,-2.3608,-2.359,-2.3625,-2.3609,-2.3631,-2.3626,-2.3663,-2.366,-2.3791,-2.3805,-2.3673,-2.3675,-2.3676,0,-2.3795,-2.3813,-2.3783,-2.3786,-2.3776,-2.3782,-2.3781,-2.3739,-2.374,-2.3723,-2.3737,-2.3738,-2.3736,-2.3745,-2.3718,-2.3716,-2.3699,-2.3745,-2.3699,-2.371,-2.37,-2.37,-2.3701,-2.3755,-2.3757,-2.3758,-2.3759,0,-2.391,-2.3892,-2.3892,-2.3886,-2.3887,-2.388,-2.3871,-2.3876,-2.3831,-2.3835,-2.3838,-2.3836,-2.3833,-2.3834,-2.3827,-2.3814,-2.3779,-2.3774,-2.3782,-2.3794,-2.3806,-2.38,-2.3657,-2.3771,-2.377,-2.3769,-2.3768,-2.3768,-2.3999,-2.4013,-2.3993,-2.3995,-2.3983,-2.3975,-2.3985,-2.3961,-2.3963,-2.3957,-2.3932,-2.394,-2.3923,-2.3909,-2.3899,-2.3905,-2.3883,-2.3895,-2.3898,-2.3901,-2.3908,-2.3805,-2.3903,-2.3903,-2.3902,-2.3902,-2.3902,0,-2.4111,-2.4096,-2.4098,-2.4086,-2.4087,-2.4053,-2.4041,-2.4044,-2.4051,-2.4038,-2.4036,-2.404,-2.404,-2.4012,-2.4009,-2.4019,-2.4003,-2.402,-2.4019,-2.4016,-2.3928,-2.3921,-2.4032,-2.4032,-2.4032,-2.4032,-2.4032,-2.4032,-2.417,-2.4192,-2.4171,-2.4186,-2.417,-2.4176,-2.4172,-2.4165,-2.4154,-2.4159,-2.4159,-2.4141,-2.4121,-2.4116,-2.4115,-2.4107,-2.4108,-2.413,-2.4117,-2.4035,-2.4023,-2.4011,-2.4004,-2.4131,-2.4131,-2.4204,-2.4205,-2.4206]}]]